Lake Piru Weather Center

Moon Phase Calendar



Lake Piru Water Level
Online Cameras

 


      

Current Conditions in Piru
6/20/2024 10:21:27 PM

63°F
Feels Like 62
Clear
Humidity
69%
Pressure
29.77"
Wind
3.2 mph (NNE)
Dew Point
53°F
UV Index
0/10 (Low)
Visibility
6 mi

Hourly Forecast

Date & Time Thu, Jun 20
10:00 PM
Thu, Jun 20
11:00 PM
Fri, Jun 21
12:00 AM
Fri, Jun 21
1:00 AM
Fri, Jun 21
2:00 AM
Fri, Jun 21
3:00 AM
Fri, Jun 21
4:00 AM
Fri, Jun 21
5:00 AM
Fri, Jun 21
6:00 AM
Fri, Jun 21
7:00 AM
Fri, Jun 21
8:00 AM
Fri, Jun 21
9:00 AM
Fri, Jun 21
10:00 AM
Fri, Jun 21
11:00 AM
Fri, Jun 21
12:00 PM
Fri, Jun 21
1:00 PM
Fri, Jun 21
2:00 PM
Fri, Jun 21
3:00 PM
Fri, Jun 21
4:00 PM
Fri, Jun 21
5:00 PM
Fri, Jun 21
6:00 PM
Fri, Jun 21
7:00 PM
Fri, Jun 21
8:00 PM
Fri, Jun 21
9:00 PM
Fri, Jun 21
10:00 PM
Fri, Jun 21
11:00 PM
Sat, Jun 22
12:00 AM
Sat, Jun 22
1:00 AM
Sat, Jun 22
2:00 AM
Sat, Jun 22
3:00 AM
Sat, Jun 22
4:00 AM
Sat, Jun 22
5:00 AM
Sat, Jun 22
6:00 AM
Sat, Jun 22
7:00 AM
Sat, Jun 22
8:00 AM
Sat, Jun 22
9:00 AM
Sat, Jun 22
10:00 AM
Sat, Jun 22
11:00 AM
Sat, Jun 22
12:00 PM
Sat, Jun 22
1:00 PM
Sat, Jun 22
2:00 PM
Sat, Jun 22
3:00 PM
Sat, Jun 22
4:00 PM
Sat, Jun 22
5:00 PM
Sat, Jun 22
6:00 PM
Sat, Jun 22
7:00 PM
Sat, Jun 22
8:00 PM
Sat, Jun 22
9:00 PM
Condition
Clear

Clear

Clear

Clear

Clear

Clear

Clear

Clear

Clear

Clear

Clear

Clear

Clear

Clear

Clear

Clear

Clear

Clear

Clear

Clear

Clear

Clear

Clear

Clear

Clear

Clear

Clear

Clear

Clear

Clear

Clear

Clear

Clear

Clear

Clear

Clear

Clear

Clear

Clear

Clear

Clear

Clear

Clear

Clear

Clear

Clear

Clear

Clear
Temperature 63°F64°F65°F66°F66°F67°F66°F66°F65°F72°F80°F86°F90°F93°F95°F95°F94°F94°F93°F92°F90°F85°F75°F73°F74°F74°F74°F73°F72°F72°F72°F72°F72°F78°F86°F91°F95°F98°F101°F102°F102°F102°F100°F98°F95°F90°F79°F75°F
Feels Like 62°F63°F64°F64°F65°F65°F64°F64°F63°F70°F80°F83°F86°F89°F91°F91°F90°F90°F89°F88°F86°F83°F74°F72°F73°F72°F72°F71°F71°F71°F71°F71°F71°F77°F83°F87°F90°F93°F96°F97°F97°F97°F96°F94°F91°F87°F79°F74°F
Cloudiness 0%0%0%0%0%0%0%0%0%0%0%0%0%0%0%0%0%0%0%0%0%0%0%0%0%0%0%0%0%0%0%0%0%0%0%0%0%0%0%0%0%0%0%0%0%0%0%0%
Visibility 6 mi6 mi6 mi6 mi6 mi6 mi6 mi6 mi6 mi6 mi6 mi6 mi6 mi6 mi6 mi6 mi6 mi6 mi6 mi6 mi6 mi6 mi6 mi6 mi6 mi6 mi6 mi6 mi6 mi6 mi6 mi6 mi6 mi6 mi6 mi6 mi6 mi6 mi6 mi6 mi6 mi6 mi6 mi6 mi6 mi6 mi6 mi6 mi
Precipitation 0%0%0%0%0%0%0%0%0%0%0%0%0%0%0%0%0%0%0%0%0%0%0%0%0%0%0%0%0%0%0%0%0%0%0%0%0%0%0%0%0%0%0%0%0%0%0%0%
Humidity 69%63%56%48%41%34%35%37%38%33%24%19%16%15%14%15%17%17%18%18%20%26%39%38%34%31%29%30%31%30%29%29%28%26%20%18%16%15%12%11%11%12%14%16%19%24%35%37%
Dew Point 53°F51°F49°F45°F42°F35°F36°F36°F36°F39°F38°F38°F37°F37°F38°F39°F41°F42°F42°F41°F42°F44°F46°F45°F42°F40°F38°F38°F38°F37°F37°F36°F35°F39°F39°F40°F41°F41°F39°F37°F38°F39°F42°F44°F45°F47°F47°F46°F
Pressure 29.77"29.77"29.77"29.74"29.74"29.74"29.74"29.74"29.77"29.77"29.77"29.74"29.74"29.74"29.71"29.71"29.71"29.71"29.71"29.71"29.71"29.71"29.74"29.77"29.77"29.77"29.77"29.8"29.8"29.77"29.77"29.77"29.8"29.8"29.8"29.8"29.8"29.8"29.8"29.77"29.77"29.77"29.77"29.77"29.77"29.77"29.8"29.83"
Wind Speed 3.2 mph3.7 mph3.6 mph4 mph4.7 mph5.2 mph5 mph4.9 mph5.4 mph4.1 mph2.6 mph1.8 mph4.4 mph6.5 mph8.5 mph11 mph11.1 mph10 mph9.3 mph8 mph6.8 mph4.8 mph2.5 mph4.1 mph4.7 mph4 mph3.9 mph4.2 mph4.6 mph5.5 mph4.9 mph4.4 mph4.9 mph4.1 mph2.5 mph3.4 mph5.7 mph6.6 mph8.5 mph9.6 mph10 mph10.4 mph9.8 mph9 mph7.5 mph5.7 mph3.8 mph2.6 mph
Wind
Direction
15°
NNE

N
10°
N

N

N
356°
N
351°
N
350°
N
357°
N

N
65°
ENE
124°
SE
167°
SSE
184°
S
197°
SSW
211°
SSW
214°
SW
216°
SW
220°
SW
219°
SW
214°
SW
215°
SW
258°
WSW
342°
NNW
355°
N

N
11°
N
23°
NNE
15°
NNE

N

N

N

N
16°
NNE
84°
E
149°
SSE
175°
S
187°
S
182°
S
185°
S
192°
SSW
202°
SSW
211°
SSW
215°
SW
221°
SW
225°
SW
250°
WSW
302°
WNW

Daily Forecast

Date High Low Precip. Humidity
Today
Jun 20

Clear
86 °F
63 °F
0%
29%
Friday
Jun 21

Clear
95 °F
65 °F
0%
14%
Saturday
Jun 22

Clear
102 °F
72 °F
0%
12%
Sunday
Jun 23

Clear
97 °F
71 °F
0%
14%
Monday
Jun 24

Clear
95 °F
70 °F
0%
13%
Tuesday
Jun 25

Clear
96 °F
71 °F
0%
18%
Wednesday
Jun 26

Clear
98 °F
74 °F
0%
14%
Thursday
Jun 27

Clear
92 °F
68 °F
0%
20%
Friday
Jun 28

Clear
86 °F
61 °F
0%
36%
Saturday
Jun 29

Clear
92 °F
59 °F
0%
31%
Sunday
Jun 30

Clear
98 °F
64 °F
0%
19%
Monday
Jul 1

Clear
101 °F
72 °F
0%
17%
Tuesday
Jul 2

Clear
99 °F
72 °F
0%
20%
Wednesday
Jul 3

Clear
95 °F
67 °F
0%
25%
Thursday
Jul 4

Clear
90 °F
62 °F
0%
26%
Friday
Jul 5

Clear
91 °F
65 °F
0%
23%

Temperature 8-14 Day Outlook



Precipitation 8-14 Day Outlook






About Us
Contact Us
Site Map
Search Site
Advertise With Us
   
Piru.USLakes.info
THE LAKE PIRU WEBSITE

Copyright 2024, Lakes Online
Privacy    |    Legal